sat.trackr.live / text

‹ back to catalog

STARLINK-36418

NORAD 67422 · 2026-005U

PAYLOAD ACTIVE UNKNOWN

§ Identity

Operator
Country
US
Launch date
2026-01-12
Launch site
AFETR
Launch vehicle
Mass (kg)
RCS (m²)

Purposes: comms

External: N2YO · Heavens-Above · Gunter

§ Orbital elements

Epoch: 2026-09-19T14:00:58.527072Z

Period
94.27 min
Inclination
42.9971°
Eccentricity
0.0000708
Mean motion
15.27584394 rev/d
Perigee alt
482.6 km
Apogee alt
483.5 km
Semi-major
6,861.2 km
B*
2.9240e-4
RAAN
222.6611°
Arg perigee
275.5705°
Mean anomaly
84.5066°
Rev number
3,835

§ Raw data

STARLINK-364181 67422U 26005U   26262.58401073  .00007794  00000+0  29240-3 0  99962 67422  42.9971 222.6611 0000708 275.5705  84.5066 15.27584394 38357

JSON: /api/v1/satellites/67422 · /tle

For live sub-satellite position, see the globe view (requires WebGL).

§ Visibility from observer

Set your observer location to see the next 7 days of passes ≥ 10°. The values pass through the URL so the page stays shareable.

No JS? Fill the form by hand. The geolocation button needs JavaScript.